When you browse on this site, cookies collect data to enhance your experience and personalize the content and advertising you see.
Visit our Privacy Policy to learn more. By continuing to use the site, you agree to this use of cookies and data.
  • In Austria
  • List of Countries
  • For 7 days
  • Water Temperature
  • Satellite Maps
  • Weather Map
  • News
  • Weather Widgets
  • user-avatar
    Login

    Hourly Weather Castelo Branco

    Today, 26 May, Sunday

    Time Temperature Precipitation Wind Pressure Humidity
    00:00 +18°C° 0 mm 2 mps 732 mmHg 50%
    01:00 +17°C° 0 mm 2 mps 732 mmHg 51%
    02:00 +17°C° 0 mm 2 mps 732 mmHg 52%
    03:00 +16°C° 0 mm 2 mps 732 mmHg 54%
    04:00 +16°C° 0 mm 2 mps 732 mmHg 55%
    05:00 +16°C° 0 mm 2 mps 732 mmHg 57%
    06:00 +16°C° 0 mm 2 mps 732 mmHg 59%
    07:00 +18°C° 0 mm 2 mps 732 mmHg 52%
    08:00 +20°C° 0 mm 3 mps 733 mmHg 45%
    09:00 +24°C° 0 mm 3 mps 733 mmHg 38%
    10:00 +26°C° 0 mm 3 mps 733 mmHg 35%
    11:00 +27°C° 0 mm 3 mps 732 mmHg 31%
    12:00 +29°C° 0 mm 3 mps 732 mmHg 28%
    13:00 +30°C° 0 mm 3 mps 732 mmHg 27%
    14:00 +31°C° 0 mm 3 mps 732 mmHg 25%
    15:00 +33°C° 0 mm 4 mps 731 mmHg 24%
    16:00 +32°C° 0 mm 4 mps 731 mmHg 26%
    17:00 +30°C° 0 mm 3 mps 731 mmHg 27%
    18:00 +30°C° 0 mm 3 mps 730 mmHg 29%
    19:00 +27°C° 0 mm 3 mps 730 mmHg 35%
    20:00 +25°C° 0 mm 2 mps 730 mmHg 41%
    21:00 +23°C° 0 mm 2 mps 731 mmHg 47%
    22:00 +22°C° 0 mm 1 mps 731 mmHg 51%
    23:00 +21°C° 0 mm 1 mps 730 mmHg 54%

    Tomorrow, 27 May, Monday

    Time Temperature Precipitation Wind Pressure Humidity
    00:00 +20°C° 0 mm 1 mps 730 mmHg 58%
    01:00 +20°C° 0 mm 1 mps 730 mmHg 59%
    02:00 +19°C° 0 mm 1 mps 730 mmHg 61%
    03:00 +19°C° 0 mm 1 mps 730 mmHg 62%
    04:00 +19°C° 0 mm 1 mps 730 mmHg 63%
    05:00 +19°C° 0 mm 1 mps 730 mmHg 64%
    06:00 +19°C° 0 mm 1 mps 730 mmHg 65%
    07:00 +21°C° 0 mm 1 mps 730 mmHg 57%
    08:00 +24°C° 0 mm 1 mps 730 mmHg 49%
    09:00 +26°C° 0 mm 1 mps 731 mmHg 41%
    10:00 +28°C° 0 mm 1 mps 730 mmHg 36%
    11:00 +30°C° 0 mm 2 mps 730 mmHg 32%
    12:00 +32°C° 0 mm 2 mps 730 mmHg 28%
    13:00 +33°C° 0 mm 3 mps 729 mmHg 27%
    14:00 +33°C° 0 mm 3 mps 729 mmHg 26%
    15:00 +33°C° 0 mm 4 mps 729 mmHg 25%
    16:00 +32°C° 0 mm 4 mps 728 mmHg 29%
    17:00 +30°C° 0 mm 4 mps 728 mmHg 32%
    18:00 +29°C° 0 mm 4 mps 728 mmHg 35%
    19:00 +26°C° 0 mm 3 mps 728 mmHg 43%
    20:00 +24°C° 0 mm 3 mps 728 mmHg 50%
    21:00 +21°C° 0 mm 2 mps 729 mmHg 58%
    22:00 +20°C° 0 mm 2 mps 729 mmHg 61%
    23:00 +19°C° 0 mm 2 mps 729 mmHg 64%

    Day after tomorrow, 28 May, Tuesday

    Time Temperature Precipitation Wind Pressure Humidity
    00:00 +19°C° 0 mm 2 mps 729 mmHg 67%
    01:00 +18°C° 0 mm 2 mps 729 mmHg 68%
    02:00 +18°C° 0 mm 2 mps 728 mmHg 70%
    03:00 +17°C° 0 mm 2 mps 728 mmHg 71%
    04:00 +17°C° 0 mm 2 mps 728 mmHg 71%
    05:00 +17°C° 0 mm 2 mps 728 mmHg 72%
    06:00 +17°C° 0 mm 2 mps 729 mmHg 72%
    07:00 +19°C° 0 mm 2 mps 729 mmHg 62%
    08:00 +22°C° 0 mm 3 mps 729 mmHg 53%
    09:00 +25°C° 0 mm 3 mps 730 mmHg 44%
    10:00 +27°C° 0 mm 3 mps 730 mmHg 39%
    11:00 +29°C° 0 mm 3 mps 730 mmHg 35%
    12:00 +30°C° 0 mm 3 mps 730 mmHg 30%
    13:00 +31°C° 0 mm 3 mps 730 mmHg 27%
    14:00 +33°C° 0 mm 3 mps 730 mmHg 25%
    15:00 +34°C° 0 mm 3 mps 729 mmHg 23%
    16:00 +33°C° 0 mm 3 mps 729 mmHg 24%
    17:00 +32°C° 0 mm 4 mps 729 mmHg 25%
    18:00 +32°C° 0 mm 4 mps 729 mmHg 26%
    19:00 +28°C° 0 mm 3 mps 729 mmHg 31%
    20:00 +26°C° 0 mm 3 mps 730 mmHg 37%
    21:00 +24°C° 0 mm 2 mps 730 mmHg 43%
    22:00 +23°C° 0 mm 2 mps 730 mmHg 44%
    23:00 +21°C° 0 mm 2 mps 730 mmHg 45%

    29 May, Wednesday

    Time Temperature Precipitation Wind Pressure Humidity
    00:00 +20°C° 0 mm 2 mps 731 mmHg 46%
    01:00 +19°C° 0 mm 2 mps 731 mmHg 47%
    02:00 +18°C° 0 mm 2 mps 731 mmHg 48%
    03:00 +18°C° 0 mm 2 mps 731 mmHg 49%
    04:00 +17°C° 0 mm 2 mps 731 mmHg 51%
    05:00 +17°C° 0 mm 2 mps 731 mmHg 53%
    06:00 +17°C° 0 mm 2 mps 732 mmHg 54%
    07:00 +19°C° 0 mm 3 mps 732 mmHg 48%
    08:00 +21°C° 0 mm 3 mps 733 mmHg 41%
    09:00 +25°C° 0 mm 4 mps 733 mmHg 35%
    10:00 +27°C° 0 mm 4 mps 733 mmHg 31%
    11:00 +29°C° 0 mm 4 mps 733 mmHg 27%
    12:00 +30°C° 0 mm 3 mps 733 mmHg 23%
    13:00 +31°C° 0 mm 3 mps 733 mmHg 21%
    14:00 +33°C° 0 mm 3 mps 732 mmHg 19%
    15:00 +34°C° 0 mm 3 mps 732 mmHg 17%
    16:00 +33°C° 0 mm 3 mps 732 mmHg 18%
    17:00 +33°C° 0 mm 3 mps 732 mmHg 20%
    18:00 +31°C° 0 mm 3 mps 732 mmHg 22%
    19:00 +29°C° 0 mm 3 mps 732 mmHg 26%
    20:00 +26°C° 0 mm 3 mps 732 mmHg 30%
    21:00 +24°C° 0 mm 3 mps 733 mmHg 34%
    22:00 +23°C° 0 mm 2 mps 733 mmHg 36%
    23:00 +21°C° 0 mm 2 mps 733 mmHg 38%

    30 May, Thursday

    Time Temperature Precipitation Wind Pressure Humidity
    00:00 +20°C° 0 mm 2 mps 733 mmHg 39%
    01:00 +20°C° 0 mm 2 mps 733 mmHg 41%
    02:00 +19°C° 0 mm 2 mps 733 mmHg 42%
    03:00 +19°C° 0 mm 2 mps 733 mmHg 43%
    04:00 +18°C° 0 mm 2 mps 734 mmHg 45%
    05:00 +18°C° 0 mm 2 mps 734 mmHg 47%
    06:00 +18°C° 0 mm 2 mps 734 mmHg 49%
    07:00 +20°C° 0 mm 3 mps 735 mmHg 44%
    08:00 +22°C° 0 mm 3 mps 735 mmHg 40%
    09:00 +25°C° 0 mm 3 mps 735 mmHg 35%
    10:00 +27°C° 0 mm 3 mps 735 mmHg 31%
    11:00 +29°C° 0 mm 3 mps 735 mmHg 27%
    12:00 +31°C° 0 mm 3 mps 735 mmHg 23%
    13:00 +33°C° 0 mm 3 mps 735 mmHg 21%
    14:00 +34°C° 0 mm 3 mps 735 mmHg 19%
    15:00 +35°C° 0 mm 2 mps 734 mmHg 17%
    16:00 +35°C° 0 mm 2 mps 734 mmHg 17%
    17:00 +34°C° 0 mm 2 mps 734 mmHg 18%
    18:00 +34°C° 0 mm 2 mps 734 mmHg 19%
    19:00 +30°C° 0 mm 2 mps 734 mmHg 23%
    20:00 +28°C° 0 mm 2 mps 734 mmHg 27%
    21:00 +25°C° 0 mm 2 mps 734 mmHg 30%
    22:00 +24°C° 0 mm 2 mps 734 mmHg 32%
    23:00 +23°C° 0 mm 2 mps 734 mmHg 33%

    31 May, Friday

    Time Temperature Precipitation Wind Pressure Humidity
    00:00 +21°C° 0 mm 2 mps 734 mmHg 34%
    01:00 +21°C° 0 mm 2 mps 734 mmHg 35%
    02:00 +20°C° 0 mm 2 mps 734 mmHg 36%
    03:00 +20°C° 0 mm 2 mps 734 mmHg 37%
    04:00 +19°C° 0 mm 2 mps 734 mmHg 39%
    05:00 +19°C° 0 mm 2 mps 734 mmHg 40%
    06:00 +19°C° 0 mm 2 mps 735 mmHg 41%
    07:00 +22°C° 0 mm 3 mps 735 mmHg 39%
    08:00 +25°C° 0 mm 4 mps 735 mmHg 37%
    09:00 +27°C° 0 mm 4 mps 735 mmHg 35%
    10:00 +29°C° 0 mm 4 mps 735 mmHg 31%
    11:00 +32°C° 0 mm 5 mps 735 mmHg 27%
    12:00 +33°C° 0 mm 5 mps 735 mmHg 23%
    13:00 +34°C° 0 mm 4 mps 734 mmHg 21%
    14:00 +35°C° 0 mm 4 mps 734 mmHg 19%
    15:00 +36°C° 0 mm 4 mps 733 mmHg 17%
    16:00 +35°C° 0 mm 4 mps 733 mmHg 18%
    17:00 +35°C° 0 mm 4 mps 733 mmHg 18%
    18:00 +34°C° 0 mm 3 mps 733 mmHg 19%
    19:00 +31°C° 0 mm 3 mps 733 mmHg 21%
    20:00 +29°C° 0 mm 3 mps 733 mmHg 23%
    21:00 +26°C° 0 mm 3 mps 733 mmHg 24%
    22:00 +25°C° 0 mm 3 mps 733 mmHg 25%
    23:00 +25°C° 0 mm 3 mps 733 mmHg 26%
    Show more